Location: Nashville
(36.1660°N, 86.7840°W)
Time: 07:06:23
(UTC-05:00)

AO-109 - Pass Details

Date: 25 May 2022
Orbit: 477 x 502 km, 60.7° (Epoch: 27 June)

Event Time Altitude Azimuth Distance (km) Brightness Sun altitude
Rises 23:47:07 0° 335° (NNW) 2,599 ? -31.1°
Reaches altitude 10° 23:49:30 10° 347° (NNW) 1,714 ? -31.3°
Enters shadow 23:50:58 19° 3° (N) 1,259 ? -31.3°
